Date String (YYYY-MM-DD hh:mm:ss) UTC,Instrument flags,Ambient pressure (hPa),Sample flow (lpm),Bypass flow (lpm),Sample temperature (°C),Ambient temperature (°C),ASC tube jacket temperature (°C),LED temperature (°C),Box temperature (°C),Sample RH (%),Span deviation,Mass concentration (μg/m³),Mass concentration (μg/m³),Mass concentration (μg/m³)
DateTimeUTC,F1_M11,P_M11,Q1_M11,Q2_M11,T1_M11,T2_M11,T3_M11,T4_M11,T5_M11,U1_M11,ZSPAN_M11,X2_M11,X0_M11,X1_M11
2022-03-05 23:00:00,,0821.0,4.99,0.00,22.1,21.2,00.0,31.2,23.8,13.9,0000.0,0004.83,0007.25,0004.62
2022-03-05 23:01:00,,0821.0,5.01,0.00,22.1,21.2,00.0,31.2,23.7,13.9,0000.0,0004.87,0007.40,0004.63
2022-03-05 23:02:00,,0821.0,4.98,0.00,22.0,21.1,00.0,31.2,23.7,13.9,0000.0,0004.89,0007.47,0004.63
2022-03-05 23:03:00,,0821.0,5.01,0.00,22.0,21.1,00.0,31.1,23.7,13.9,0000.0,0004.90,0007.46,0004.64
2022-03-05 23:04:00,,0821.0,4.99,0.00,22.0,21.0,00.0,31.1,23.7,14.0,0000.0,0004.89,0007.40,0004.65
2022-03-05 23:05:00,,0821.0,4.99,0.00,22.0,21.1,00.0,31.1,23.7,14.0,0000.0,0004.91,0007.45,0004.66
2022-03-05 23:06:00,,0821.0,5.01,0.00,22.0,21.1,00.0,31.1,23.7,14.0,0000.0,0004.92,0007.43,0004.68
2022-03-05 23:07:00,,0821.0,4.99,0.00,22.0,21.1,00.0,31.1,23.7,14.0,0000.0,0004.94,0007.44,0004.69
2022-03-05 23:08:00,,0821.1,5.00,0.00,22.0,21.1,00.0,31.1,23.7,14.1,0000.0,0004.93,0007.33,0004.68
2022-03-05 23:09:00,,0821.2,5.00,0.00,22.0,21.2,00.0,31.1,23.7,14.2,0000.0,0004.95,0007.35,0004.69
2022-03-05 23:10:00,,0821.1,5.01,0.00,22.0,21.1,00.0,31.0,23.7,14.2,0000.0,0004.96,0007.34,0004.70
2022-03-05 23:11:00,,0821.1,4.99,0.00,22.0,21.1,00.0,31.0,23.7,14.2,0000.0,0004.95,0007.28,0004.70
2022-03-05 23:12:00,,0821.1,5.01,0.00,21.9,21.1,00.0,31.0,23.7,14.1,0000.0,0004.93,0007.11,0004.71
2022-03-05 23:13:00,,0821.1,4.99,0.00,21.9,21.0,00.0,31.0,23.6,14.1,0000.0,0004.93,0007.13,0004.72
2022-03-05 23:14:00,,0821.1,5.02,0.00,21.9,21.0,00.0,31.0,23.6,14.1,0000.0,0004.94,0007.09,0004.73
2022-03-05 23:15:00,,0821.1,4.99,0.00,21.9,21.0,00.0,31.0,23.6,14.0,0000.0,0004.94,0007.13,0004.74
2022-03-05 23:16:00,,0821.1,4.99,0.00,21.9,21.1,00.0,31.0,23.6,14.2,0000.0,0004.93,0007.10,0004.74
2022-03-05 23:17:00,,0821.1,5.01,0.00,21.9,21.1,00.0,31.0,23.6,14.2,0000.0,0004.94,0007.12,0004.75
2022-03-05 23:18:00,,0821.1,4.99,0.00,21.9,21.1,00.0,30.9,23.6,14.1,0000.0,0004.94,0007.23,0004.75
2022-03-05 23:19:00,,0821.1,5.00,0.00,21.9,21.0,00.0,30.9,23.6,14.1,0000.0,0004.97,0007.28,0004.76
2022-03-05 23:20:00,,0821.1,5.02,0.00,21.8,21.0,00.0,30.9,23.6,14.1,0000.0,0004.99,0007.39,0004.78
2022-03-05 23:21:00,,0821.1,4.99,0.00,21.9,21.1,00.0,30.9,23.6,14.3,0000.0,0004.99,0007.40,0004.78
2022-03-05 23:22:00,,0821.1,5.00,0.00,21.9,21.2,00.0,30.9,23.6,14.3,0000.0,0005.00,0007.41,0004.79
2022-03-05 23:23:00,,0821.1,5.01,0.00,21.9,21.2,00.0,30.9,23.7,14.4,0000.0,0005.02,0007.44,0004.81
2022-03-05 23:24:00,,0821.1,5.01,0.00,21.9,21.3,00.0,30.9,23.7,14.4,0000.0,0005.02,0007.37,0004.82
2022-03-05 23:25:00,,0821.1,5.00,0.00,21.9,21.3,00.0,30.9,23.7,14.4,0000.0,0005.02,0007.36,0004.82
2022-03-05 23:26:00,,0821.1,5.00,0.00,22.0,21.3,00.0,30.9,23.8,14.5,0000.0,0005.03,0007.43,0004.82
2022-03-05 23:27:00,,0821.1,5.00,0.00,22.0,21.4,00.0,30.9,23.8,14.5,0000.0,0005.04,0007.48,0004.84
2022-03-05 23:28:00,,0821.1,5.00,0.00,22.0,21.4,00.0,30.9,23.8,14.4,0000.0,0005.05,0007.49,0004.85
2022-03-05 23:29:00,,0821.1,5.01,0.00,22.0,21.4,00.0,30.9,23.8,14.4,0000.0,0005.06,0007.49,0004.86
2022-03-05 23:30:00,,0821.1,4.99,0.00,22.0,21.4,00.0,30.9,23.8,14.3,0000.0,0005.06,0007.50,0004.86
2022-03-05 23:31:00,,0821.1,5.00,0.00,22.0,21.4,00.0,31.0,23.8,14.4,0000.0,0005.05,0007.49,0004.85
2022-03-05 23:32:00,,0821.1,5.02,0.00,22.0,21.4,00.0,31.0,23.8,14.4,0000.0,0005.05,0007.46,0004.86
2022-03-05 23:33:00,,0821.1,5.00,0.00,22.1,21.7,00.0,31.0,23.9,14.3,0000.0,0005.06,0007.49,0004.86
2022-03-05 23:34:00,,0821.2,4.98,0.00,22.2,22.5,00.0,31.0,24.1,14.1,0000.0,0005.04,0007.48,0004.85
2022-03-05 23:35:00,,0821.2,5.00,0.00,22.3,23.0,00.0,31.1,24.3,14.0,0000.0,0005.06,0007.51,0004.85
2022-03-05 23:36:00,,0821.3,4.99,0.00,22.4,22.9,00.0,31.1,24.4,13.9,0000.0,0005.07,0007.53,0004.86
2022-03-05 23:37:00,,0821.3,5.00,0.00,22.4,22.7,00.0,31.1,24.4,13.9,0000.0,0005.08,0007.50,0004.87
2022-03-05 23:38:00,,0821.3,5.00,0.00,22.4,22.5,00.0,31.2,24.3,13.9,0000.0,0005.09,0007.42,0004.88
2022-03-05 23:39:00,,0821.2,5.00,0.00,22.4,22.4,00.0,31.2,24.3,13.9,0000.0,0005.09,0007.46,0004.89
2022-03-05 23:40:00,,0821.2,5.01,0.00,22.4,22.3,00.0,31.2,24.3,13.9,0000.0,0005.11,0007.49,0004.89
2022-03-05 23:41:00,,0821.2,4.99,0.00,22.4,22.2,00.0,31.2,24.3,13.8,0000.0,0005.11,0007.52,0004.90
2022-03-05 23:42:00,,0821.3,4.99,0.00,22.4,22.1,00.0,31.2,24.3,13.9,0000.0,0005.13,0007.56,0004.91
2022-03-05 23:43:00,,0821.3,5.00,0.00,22.4,22.0,00.0,31.3,24.3,13.9,0000.0,0005.16,0007.82,0004.93
2022-03-05 23:44:00,,0821.3,5.01,0.00,22.4,22.0,00.0,31.3,24.2,13.7,0000.0,0005.17,0007.99,0004.94
2022-03-05 23:45:00,,0821.2,5.00,0.00,22.4,21.9,00.0,31.3,24.2,13.4,0000.0,0005.18,0007.99,0004.96
2022-03-05 23:46:00,,0821.2,5.01,0.00,22.4,21.8,00.0,31.3,24.2,13.5,0000.0,0005.19,0007.99,0004.98
2022-03-05 23:47:00,,0821.2,5.01,0.00,22.3,21.7,00.0,31.3,24.1,13.5,0000.0,0005.19,0007.96,0004.98
2022-03-05 23:48:00,,0821.2,4.99,0.00,22.3,21.6,00.0,31.3,24.1,13.5,0000.0,0005.18,0007.92,0004.99
2022-03-05 23:49:00,,0821.3,5.00,0.00,22.3,21.6,00.0,31.3,24.0,13.5,0000.0,0005.20,0007.94,0005.00
2022-03-05 23:50:00,,0821.3,5.01,0.00,22.3,21.6,00.0,31.3,24.0,13.7,0000.0,0005.20,0007.92,0005.01
2022-03-05 23:51:00,,0821.4,4.99,0.00,22.3,21.6,00.0,31.3,24.0,13.7,0000.0,0005.20,0007.89,0005.02
2022-03-05 23:52:00,,0821.4,5.02,0.00,22.3,21.6,00.0,31.3,24.0,13.7,0000.0,0005.20,0007.83,0005.02
2022-03-05 23:53:00,,0821.4,5.00,0.00,22.3,21.6,00.0,31.3,24.0,13.7,0000.0,0005.21,0007.99,0005.04
2022-03-05 23:54:00,,0821.4,4.99,0.00,22.3,21.6,00.0,31.3,24.0,13.7,0000.0,0005.21,0007.83,0005.04
2022-03-05 23:55:00,,0821.4,5.01,0.00,22.2,21.6,00.0,31.3,24.0,13.5,0000.0,0005.22,0008.33,0005.05
2022-03-05 23:56:00,,0821.4,5.01,0.00,22.2,21.6,00.0,31.3,24.0,13.4,0000.0,0005.24,0008.46,0005.06
2022-03-05 23:57:00,,0821.4,4.99,0.00,22.2,21.5,00.0,31.3,24.0,13.4,0000.0,0005.25,0008.61,0005.06
2022-03-05 23:58:00,,0821.4,5.00,0.00,22.2,21.5,00.0,31.2,24.0,13.3,0000.0,0005.26,0008.65,0005.07
2022-03-05 23:59:00,,0821.5,5.00,0.00,22.2,21.4,00.0,31.2,23.9,13.2,0000.0,0005.28,0008.74,0005.06
